Tracking 20621 objects as of 31-Mar-2020
HD Live streaming from Space Station
objects crossing your sky now

RADUGA 25

Track RADUGA 25 now!
RADUGA 25 is classified as:


NORAD ID: 20499
Int'l Code: 1990-016A
Perigee: 35,774.4 km
Apogee: 35,801.9 km
Inclination: 14.5 °
Period: 1,435.8 minutes
Semi major axis: 42159 km
RCS: 7.9432 m2 (large)
Launch date: February 15, 1990
Source: Commonwealth of Independent States (former USSR) (CIS)
Launch site: TYURATAM MISSILE AND SPACE COMPLEX (TTMTR)
aabbcc
Your satellite tracking list
Your tracking list is empty




NASA's NSSDC Master Catalog

Two Line Element Set (TLE):
1 20499U 90016A   20090.39849196 +.00000081 +00000-0 +00000-0 0  9999
2 20499 014.5230 352.7273 0003260 033.4373 135.0834 01.00291788110141
Source of the keplerian elements: AFSPC